Reflectivity
-20 -20 -20 -20 -20 -20 -20 -20 -20 -20 -20 -20 -20 -20 -20 -20 -20 -20 -20 -20 -20 -20 -20 -20 -20 -20 -20 -20 -20 -20 -20 -20 -20 -20 -20 -20 -20 -20 -20 -20 -20 -20 -20
-20 -20 -20 -20 -20 -20 -20 -20 -20 -20 -20 -20 -20 -20 -20 -20 -20 -20 -20 -20 -20 -20 -20 -20 -20 -20 -20 -20 -20 -20 -20 -20 -20 -20 -20 -20 -20 -20 -20 -20 -20 -20 -20
-20 -20 -20 -20 -20 -20 -20 -20 -20 -20 -20 -20 -20 -20 -20 -20 -20 -20 -20 -20 -20 -20 -20 -20 -20 -20 -20 -20 -20 -20 -20 -20 -20 -20 -20 -20 -20 -20 -20 -20 -20 -20 -20
-20 -20 -20 -20 -20 -20 -20 -20 -20 -20 -20 -20 -20 -20 -20 -20 -20 -20 -20 -20 -20 -20 -20 -20 -20 -20 -20 -20 -20 -20 -20 -20 -20 -20 -20 -20 -20 -20 -20 -20 -20 -20 -20
-20 -20 -20 -20 -20 -20 -20 -20 -20 -20 -20 -20 -20 -20 -20 -20 -20 -20 -20 -20 -20 -20 -20 -20 -20 -20 -20 -20 -20 -20 -20 -20 -20 -20 -20 -20 -20 -20 -20 -20 -20 -20 -20
-20 -20 -20 -20 -20 -20 -20 -20 -20 -20 -20 -20 -20 -20 -20 -20 -20 -20 -20 -20 -20 -20 -20 -20 -20 -20 -20 -20 -20 -20 -20 -20 -20 -20 -20 -20 -20 -20 -20 -20 -20 -20 -20
-20 -20 -20 -20 -20 -20 -20 -20 -20 -20 -20 -20 -20 -20 -20 -20 -20 -20 -20 -20 -20 -20 -20 -20 -20 -20 -20 -20 -20 -20 -20 -20 -20 -20 -20 -20 -20 -20 -20 -20 -20 -20 -20
-20 -20 -20 -20 -20 -20 -20 -20 -20 -20 -20 -20 -20 -20 -20 -20 -20 -20 -20 -20 -20 -20 -20 -20 -20 -20 -20 -20 -20 -20 -20 -20 -20 -20 -20 -20 -20 -20 -20 -20 -20 -20 -20
-20 -20 -20 -20 -20 -20 -20 -20 -20 -20 -20 -20 -20 -20 -20 -20 -20 -20 -20 -20 -20 -20 -20 -20 -20 -20 -20 -20 -20 -20 -20 -20 -20 -20 -20 -20 -20 -20 -20 -20 -20 -20 -20
-20 -20 -20 -20 -20 -20 -20 -20 -20 -20 -20 -20 -20 -20 -20 -20 -20 -20 -20 -20 -20 -20 -20 -20 -20 -20 -20 -20 -20 -20 -20 -20 -20 -20 -20 -20 -20 -20 -20 -20 -20 -20 -20
-20 -20 -20 -20 -20 -20 -20 -20 -20 -20 -20 -20 -20 -20 -20 -20 -20 -20 -20 -20 -20 -20 -20 -20 -20 -20 -20 -20 -20 -20 -20 -20 -20 -20 -20 -20 -20 -20 -20 -20 -20 -20 -20
-20 -20 -20 -20 -20 -20 -20 -20 -20 -20 -20 -20 -20 -20 -20 -20 -20 -20 -20 -20 -20 -20 -20 -20 -20 -20 -20 -20 -20 -20 -20 -20 -20 -20 -20 -20 -20 -20 -20 -20 -20 -20 -20
-20 -20 -20 -20 -20 -20 -20 -20 -20 -20 -20 -20 -20 -20 -20 -20 -20 -20 -20 -20 -20 -20 -20 -20 -20 -20 -20 -20 -20 -20 -20 -20 -20 -20 -20 -20 -20 -20 -20 -20 -20 -20 -20
-20 -20 -20 -20 -20 -20 -20 -20 -20 -20 -20 -20 -20 -20 -20 -20 -20 -20 -20 -20 -20 -20 -20 -20 -16 -7 -10 -16 -20 -20 -20 -20 -20 -20 -20 -20 -20 -20 -20 -20 -20 -20 -20
-20 -20 -20 -20 -20 -20 -20 -20 -20 -20 -20 -20 -20 -20 -20 -20 -20 -20 -20 -20 -19 -19 -18 -18 -17 -20 -20 -20 -20 -20 -20 -20 -20 -20 -20 -20 -20 -20 -20 -20 -20 -20 -20
-20 -20 -20 -20 -20 -20 -20 -20 -20 -20 -20 -20 -20 -20 -20 -20 -20 -20 -20 -20 -20 -20 -20 -20 -20 -20 -20 -20 -20 -20 -20 -20 -20 -20 -20 -20 -20 -20 -20 -20 -20 -20 -20
-20 -20 -20 -20 -20 -20 -20 -20 -20 -20 -20 -20 -20 -20 -20 -20 -20 -20 -20 -20 -20 -20 -20 -20 -20 -20 -20 -20 -20 -20 -20 -20 -20 -20 -20 -20 -20 -20 -20 -20 -20 -20 -20
-20 -20 -20 -20 -20 -20 -20 -20 -20 -20 -20 -20 -20 -20 -20 -20 -20 -20 -20 -20 -20 -20 -20 -20 -20 -20 -20 -20 -20 -20 -20 -20 -20 -20 -20 -20 -20 -20 -20 -20 -20 -20 -20
-20 -20 -20 -20 -20 -20 -20 -20 -20 -20 -20 -20 -20 -20 -20 -20 -20 -20 -20 -20 -20 -20 -20 -20 -20 -20 -20 -20 -20 -20 -20 -20 -20 -20 -20 -20 -20 -20 -20 -20 -20 -20 -20
-20 -20 -20 -20 -20 -20 -20 -20 -20 -20 -20 -20 -20 -20 -20 -20 -20 -20 -20 -20 -20 -20 -20 -20 -20 -20 -20 -20 -20 -20 -20 -20 -20 -20 -20 -20 -20 -20 -20 -20 -20 -20 -20
-20 -20 -20 -20 -20 -20 -20 -20 -20 -20 -20 -20 -20 -20 -20 -20 -20 -20 -20 -20 -20 -20 -20 -20 -20 -20 -20 -20 -20 -20 -20 -20 -20 -20 -20 -20 -20 -20 -20 -20 -20 -20 -20
-20 -20 -20 -20 -20 -20 -20 -20 -20 -20 -20 -20 -20 -20 -20 -20 -20 -20 -20 -20 -20 -20 -20 -20 -20 -20 -20 -20 -20 -20 -20 -20 -20 -20 -20 -20 -20 -20 -20 -20 -20 -20 -8
-20 -20 -20 -20 -20 -20 -20 -20 -20 -20 -20 -20 -20 -20 -20 -20 -20 -20 -20 -20 -20 -20 -20 -20 -20 -20 -20 -20 -20 -20 -20 -20 -20 -20 -20 -20 -20 -20 -20 -3 -20 5 7
-20 -20 -20 -20 -20 -20 -20 -20 -20 -20 -20 -20 -20 -20 -20 -20 -20 -20 -20 -20 -20 -20 -20 -20 -20 -20 -20 -20 -20 -20 -20 -20 -1 -20 -20 -20 -18 -19 14 12 -20 -20 -13
-20 -20 -20 -20 -20 -20 -20 -20 -20 -20 -20 -20 -20 -20 -20 -20 -20 -20 -20 -20 -20 -20 -20 -20 -20 -11 -20 -20 5 11 21 17 8 17 18 3 -20 -20 -20 -20 -20 -20 -18
-20 -20 -20 -20 -20 -20 -20 -20 -20 -20 -20 -20 -20 -20 -20 -20 -20 -20 -20 -20 -20 -20 -20 -16 8 7 7 4 4 12 13 13 17 10 12 14 15 11 -20 -18 -19 -20 -7
Wind_Speed
2 2 3 6 8 7 8 7 6 4 3 1 2 2 2 2 3 3 5 5 5 5 5 3 5 5 5 5 6 4 5 5 8 4 3 3 2 3 3 4 4 8 6
4 3 5 5 6 8 7 6 5 4 3 2 1 1 2 2 2 2 3 4 4 4 4 4 4 5 4 6 6 6 3 3 6 3 0 3 1 2 3 1 2 7 5
8 6 7 6 6 7 7 6 6 5 3 4 3 2 2 2 2 1 1 3 3 4 4 4 3 3 3 3 4 5 6 4 4 7 3 1 2 4 2 3 4 8 4
5 5 7 7 7 6 5 5 4 4 3 4 3 3 2 2 1 1 1 0 1 3 3 4 4 4 3 5 4 4 3 1 4 1 4 3 2 3 4 1 2 8 5
7 8 7 6 4 5 5 4 4 3 3 3 3 3 3 2 2 1 1 0 1 3 3 4 4 4 3 3 4 4 4 3 2 2 1 1 1 0 2 5 5 5 4
5 5 5 5 4 4 4 3 4 3 3 3 3 4 4 4 2 2 1 0 0 1 2 2 2 2 2 3 3 3 3 2 1 0 0 0 1 1 2 3 5 8 3
5 5 6 5 4 4 4 3 4 4 4 4 3 3 3 4 3 3 2 2 1 1 1 2 2 2 2 2 2 2 2 2 2 2 1 1 2 2 3 4 4 4 3
3 3 3 3 4 4 4 4 4 4 4 4 4 4 4 3 3 3 3 2 2 1 1 2 3 3 3 2 2 1 1 2 1 2 2 2 3 3 3 2 3 5 3
3 2 1 2 3 4 5 5 5 5 5 5 4 3 3 4 3 4 3 2 2 2 3 3 3 3 3 3 3 2 3 3 3 3 3 3 3 3 3 4 4 3 4
5 4 3 3 3 4 4 4 5 5 4 3 3 2 3 3 2 2 3 3 4 4 3 4 4 4 4 4 4 3 4 4 3 3 4 4 4 4 4 4 4 5 6
5 6 6 6 5 4 3 3 3 3 3 2 1 1 1 2 3 3 3 3 3 4 4 5 5 5 5 4 5 5 5 6 6 5 5 6 5 5 4 4 4 5 5
6 6 7 7 8 8 6 4 3 2 2 1 1 2 2 2 3 3 4 4 4 4 5 5 6 6 6 6 6 7 6 7 7 8 7 9 4 7 6 5 7 6 6
6 6 8 10 10 10 10 10 8 6 6 5 5 6 6 5 4 4 3 3 4 4 5 5 6 7 7 8 8 7 8 8 9 9 8 10 7 8 6 6 6 6 5
6 6 8 8 7 8 8 9 9 8 7 7 7 7 5 4 4 3 4 4 3 4 5 5 7 7 8 8 9 8 9 9 9 9 9 10 9 10 9 7 8 7 7
6 5 6 5 6 7 6 6 7 7 7 8 8 7 6 5 5 6 6 6 5 5 6 8 8 8 7 7 8 8 9 9 9 9 9 9 11 15 14 7 9 8 8
5 5 4 5 4 4 4 5 6 6 5 6 5 5 5 6 6 7 8 8 8 8 7 8 8 8 7 13 17 14 9 9 9 10 10 9 12 13 18 18 20 15 9
6 6 5 4 3 3 2 3 2 2 3 3 3 3 3 3 4 5 6 7 7 7 9 9 9 11 10 15 17 18 10 8 9 10 9 10 8 12 10 14 18 18 20
6 5 4 3 2 1 0 2 2 3 3 3 3 4 4 4 5 5 6 6 6 8 9 10 10 10 10 17 19 20 13 10 11 11 11 11 13 12 11 10 12 12 11
4 3 3 2 1 1 2 3 4 4 4 6 5 6 5 6 5 6 7 8 8 9 9 9 11 11 12 17 19 18 11 11 13 12 12 11 12 16 19 11 13 13 12
4 4 3 1 1 2 2 4 5 6 7 9 9 9 7 8 9 9 9 7 6 10 8 10 11 14 13 18 20 17 8 11 9 12 12 18 15 18 19 12 12 12 13
5 3 2 2 4 4 3 5 6 8 10 10 10 10 10 11 10 10 8 8 9 9 10 11 12 12 12 13 20 21 10 8 9 9 9 8 18 19 20 19 11 12 12
2 3 2 4 4 3 2 6 7 9 8 9 10 10 10 9 8 10 11 9 9 10 11 10 11 9 10 14 17 20 20 18 11 11 9 11 19 21 21 18 20 21 18
1 1 2 5 6 5 4 7 9 7 9 9 11 11 11 10 10 10 10 9 8 8 10 9 10 10 8 8 16 21 22 21 13 9 14 21 22 24 19 21 21 20 9
3 3 4 6 8 6 5 7 10 9 9 11 12 11 10 12 11 7 7 8 9 8 9 9 10 10 8 8 7 8 10 16 13 14 12 15 19 22 18 15 11 8 8
2 2 5 6 8 6 7 6 8 9 11 12 12 12 10 11 11 10 9 9 10 10 9 9 9 9 9 9 16 16 10 8 11 14 9 7 8 9 9 9 9 8 8
2 4 5 6 8 9 10 10 7 8 10 11 10 10 11 11 10 11 11 15 21 22 22 22 17 10 19 24 23 22 22 22 22 10 8 8 8 8 9 9 8 8 11
Wind_Direction
179 139 130 140 137 142 145 148 155 154 135 134 150 157 135 100 74 62 53 56 52 39 39 36 34 27 33 19 13 354 4 15 4 350 8 19 11 105 107 91 68 32 23
183 158 145 142 152 149 150 159 160 147 166 168 135 97 135 121 120 129 80 64 55 43 55 42 38 28 23 27 24 26 356 13 21 33 302 9 320 337 356 109 74 31 23
182 174 163 159 147 156 167 166 166 165 139 129 122 110 107 125 164 124 77 38 46 49 52 57 55 53 44 43 28 23 31 14 21 34 23 12 356 327 341 336 5 9 27
174 166 166 162 172 172 164 164 151 150 155 158 165 183 180 164 162 150 171 151 47 54 46 52 44 43 29 30 17 24 34 42 42 20 44 50 2 338 317 269 333 349 353
177 170 173 169 178 163 170 169 166 156 136 133 137 140 145 149 161 173 179 12 29 30 32 38 37 35 34 29 22 22 29 29 15 30 8 52 44 181 281 302 322 330 328
165 164 167 151 159 166 171 163 167 165 148 152 159 165 170 167 166 178 193 215 330 329 18 35 34 34 30 22 10 16 34 24 59 9 195 271 280 270 277 282 312 319 303
161 163 166 176 184 186 187 188 187 201 190 184 181 180 177 179 195 187 199 197 211 217 267 353 356 350 343 351 352 354 352 5 355 350 338 269 256 257 262 270 286 301 316
160 168 190 198 206 209 209 211 213 225 204 203 208 197 193 197 203 206 205 221 242 275 306 309 309 316 322 332 337 316 308 307 297 294 267 282 267 253 243 255 286 297 274
124 121 57 223 232 231 229 220 219 227 219 216 214 211 209 210 222 225 229 253 266 275 286 294 296 295 287 280 279 269 271 269 269 273 263 273 278 257 246 248 235 252 296
65 39 13 334 285 259 256 248 235 238 242 234 230 237 247 254 270 277 268 262 263 256 260 272 269 277 277 278 274 275 272 277 273 263 269 270 270 267 261 250 250 234 252
70 46 31 19 12 358 334 292 260 238 246 227 209 220 238 221 216 239 266 276 286 277 279 283 284 281 281 274 268 268 272 270 280 272 265 268 267 268 267 258 251 247 228
72 58 47 41 41 35 32 36 35 44 23 30 76 55 31 24 359 331 320 312 296 303 294 297 291 287 284 281 274 280 278 275 278 279 272 269 259 263 257 255 257 252 240
84 67 57 51 46 42 42 46 43 47 47 54 57 50 41 31 16 353 329 308 293 289 290 285 283 291 288 284 274 267 275 275 271 272 267 269 263 263 259 252 257 252 250
93 83 65 56 52 53 55 56 59 62 73 79 79 71 54 39 21 355 339 315 292 281 272 257 253 252 260 267 272 272 270 269 268 266 263 268 263 259 267 260 256 257 252
94 83 80 69 55 53 49 51 52 50 52 58 53 43 33 27 18 10 356 346 331 316 305 303 297 287 280 274 272 269 269 269 273 270 266 261 254 252 252 252 258 247 247
122 114 100 88 78 65 55 51 46 43 48 55 47 30 20 8 4 355 347 341 334 328 319 308 292 287 285 280 283 282 270 268 268 272 275 268 265 261 264 263 258 251 244
160 151 145 147 143 113 89 78 62 46 53 51 28 11 352 331 318 314 316 311 306 303 299 298 295 290 284 284 285 284 278 263 263 263 265 271 267 265 261 265 267 266 264
166 168 171 180 174 155 97 354 357 353 350 329 318 310 304 294 295 303 303 296 296 294 294 292 289 288 286 289 292 292 286 273 264 260 259 256 264 262 260 263 265 259 250
163 169 178 188 182 317 356 340 315 302 313 297 293 279 269 276 283 285 284 284 284 286 282 283 282 278 283 288 291 292 285 274 272 270 267 258 259 262 268 266 260 266 261
152 163 177 170 296 332 351 329 308 312 303 292 288 286 282 277 272 265 268 271 262 280 282 282 274 273 277 282 288 291 280 275 275 276 267 263 259 260 263 257 255 261 263
161 121 83 346 319 329 341 300 292 286 281 284 284 281 270 260 261 273 270 272 275 276 274 272 275 272 266 276 287 291 284 271 273 273 274 264 262 267 270 266 258 252 264
65 55 9 309 301 315 296 287 283 282 280 283 285 283 281 276 273 268 279 272 268 272 273 274 276 273 268 263 279 286 286 287 282 279 275 270 264 266 271 273 267 268 263
47 19 343 320 305 309 286 281 285 284 290 292 290 288 285 277 274 270 273 273 266 257 271 273 276 281 280 271 269 280 288 287 281 275 274 273 272 271 270 268 269 269 260
2 348 328 294 286 284 261 246 286 288 289 290 292 288 282 285 280 265 257 259 265 266 266 271 274 277 280 277 270 260 267 277 281 278 274 271 273 268 266 267 262 253 249
313 275 282 284 286 289 284 274 273 283 292 296 296 296 293 289 288 278 273 263 261 256 269 268 267 276 280 280 283 293 293 284 273 278 265 257 262 258 254 251 248 243 242
297 311 298 295 306 305 305 306 288 281 289 297 304 300 301 299 293 291 290 274 277 282 284 286 283 284 286 293 299 302 301 301 300 293 285 278 272 255 260 254 249 237 239